Tiempo cada hora Baronskaya

Hoy, 13 Mayo, Jueves

Tiempo Temperatura Precipitaciones Viento Presión Humedad
00:00 +14°C° 0 mm 0 mps 750 mmHg 65%
01:00 +14°C° 0 mm 0 mps 750 mmHg 67%
02:00 +13°C° 0 mm 0 mps 750 mmHg 69%
03:00 +13°C° 0 mm 0 mps 750 mmHg 70%
04:00 +12°C° 0 mm 0 mps 750 mmHg 72%
05:00 +14°C° 0 mm 0 mps 750 mmHg 65%
06:00 +16°C° 0 mm 0 mps 750 mmHg 59%
07:00 +20°C° 0 mm 1 mps 750 mmHg 53%
08:00 +22°C° 0 mm 1 mps 750 mmHg 47%
09:00 +24°C° 0 mm 1 mps 750 mmHg 41%
10:00 +26°C° 0 mm 2 mps 750 mmHg 35%
11:00 +26°C° 0 mm 2 mps 750 mmHg 33%
12:00 +27°C° 0 mm 2 mps 750 mmHg 31%
13:00 +28°C° 0 mm 2 mps 750 mmHg 29%
14:00 +28°C° 0 mm 2 mps 750 mmHg 29%
15:00 +28°C° 0 mm 2 mps 749 mmHg 29%
16:00 +28°C° 0 mm 2 mps 749 mmHg 28%
17:00 +27°C° 0 mm 2 mps 749 mmHg 34%
18:00 +26°C° 0 mm 1 mps 749 mmHg 41%
19:00 +24°C° 0 mm 1 mps 749 mmHg 47%
20:00 +22°C° 0 mm 1 mps 749 mmHg 50%
21:00 +19°C° 0 mm 0 mps 749 mmHg 54%
22:00 +17°C° 0 mm 0 mps 749 mmHg 58%
23:00 +16°C° 0 mm 0 mps 749 mmHg 60%

Mañana, 14 Mayo, Viernes

Tiempo Temperatura Precipitaciones Viento Presión Humedad
00:00 +18°C° 0 mm 1 mps 749 mmHg 61%
01:00 +16°C° 0 mm 1 mps 749 mmHg 63%
02:00 +16°C° 0 mm 1 mps 749 mmHg 65%
03:00 +16°C° 0 mm 1 mps 749 mmHg 67%
04:00 +15°C° 0 mm 1 mps 749 mmHg 69%
05:00 +18°C° 0 mm 1 mps 749 mmHg 63%
06:00 +20°C° 0 mm 1 mps 749 mmHg 57%
07:00 +22°C° 0 mm 1 mps 749 mmHg 51%
08:00 +24°C° 0 mm 2 mps 749 mmHg 44%
09:00 +26°C° 0 mm 3 mps 749 mmHg 38%
10:00 +27°C° 0 mm 3 mps 749 mmHg 32%
11:00 +28°C° 0 mm 3 mps 749 mmHg 30%
12:00 +29°C° 0 mm 4 mps 749 mmHg 28%
13:00 +29°C° 0 mm 4 mps 748 mmHg 27%
14:00 +29°C° 0 mm 4 mps 748 mmHg 27%
15:00 +29°C° 0 mm 4 mps 748 mmHg 27%
16:00 +29°C° 0 mm 4 mps 748 mmHg 28%
17:00 +28°C° 0 mm 4 mps 747 mmHg 34%
18:00 +26°C° 0 mm 3 mps 747 mmHg 40%
19:00 +25°C° 0 mm 3 mps 747 mmHg 47%
20:00 +22°C° 0 mm 3 mps 747 mmHg 53%
21:00 +21°C° 0 mm 2 mps 747 mmHg 59%
22:00 +19°C° 0 mm 2 mps 747 mmHg 65%
23:00 +19°C° 0 mm 2 mps 746 mmHg 66%

Pasado mañana, 15 Mayo, Sábado

Tiempo Temperatura Precipitaciones Viento Presión Humedad
00:00 +18°C° 0 mm 2 mps 746 mmHg 67%
01:00 +18°C° 0 mm 2 mps 746 mmHg 68%
02:00 +17°C° 0 mm 2 mps 746 mmHg 70%
03:00 +17°C° 0 mm 2 mps 746 mmHg 72%
04:00 +16°C° 0 mm 2 mps 746 mmHg 74%
05:00 +18°C° 0 mm 2 mps 746 mmHg 68%
06:00 +20°C° 0 mm 2 mps 746 mmHg 61%
07:00 +21°C° 0 mm 3 mps 746 mmHg 54%
08:00 +23°C° 0 mm 4 mps 746 mmHg 49%
09:00 +26°C° 0 mm 4 mps 746 mmHg 43%
10:00 +27°C° 0 mm 5 mps 746 mmHg 38%
11:00 +28°C° 0 mm 5 mps 746 mmHg 37%
12:00 +28°C° 0 mm 5 mps 746 mmHg 36%
13:00 +29°C° 0 mm 6 mps 746 mmHg 35%
14:00 +29°C° 0 mm 6 mps 746 mmHg 35%
15:00 +29°C° 0 mm 5 mps 746 mmHg 35%
16:00 +29°C° 0 mm 5 mps 746 mmHg 36%
17:00 +28°C° 0 mm 4 mps 745 mmHg 41%
18:00 +26°C° 0 mm 3 mps 745 mmHg 46%
19:00 +25°C° 0 mm 2 mps 745 mmHg 52%
20:00 +23°C° 0 mm 2 mps 745 mmHg 57%
21:00 +21°C° 0 mm 2 mps 745 mmHg 61%
22:00 +19°C° 0 mm 2 mps 745 mmHg 66%
23:00 +19°C° 0 mm 2 mps 745 mmHg 69%

16 Mayo, Domingo

Tiempo Temperatura Precipitaciones Viento Presión Humedad
00:00 +18°C° 0 mm 2 mps 745 mmHg 71%
01:00 +17°C° 0 mm 2 mps 745 mmHg 73%
02:00 +17°C° 0 mm 2 mps 745 mmHg 74%
03:00 +16°C° 0 mm 2 mps 745 mmHg 74%
04:00 +16°C° 0 mm 2 mps 745 mmHg 74%
05:00 +18°C° 0 mm 2 mps 746 mmHg 67%
06:00 +20°C° 0 mm 2 mps 746 mmHg 59%
07:00 +22°C° 0 mm 3 mps 746 mmHg 52%
08:00 +25°C° 0 mm 3 mps 746 mmHg 44%
09:00 +27°C° 0 mm 4 mps 746 mmHg 37%
10:00 +29°C° 0 mm 4 mps 745 mmHg 30%
11:00 +29°C° 0 mm 5 mps 745 mmHg 28%
12:00 +30°C° 0 mm 5 mps 745 mmHg 26%
13:00 +32°C° 0 mm 5 mps 745 mmHg 24%
14:00 +32°C° 0 mm 5 mps 745 mmHg 25%
15:00 +32°C° 0 mm 5 mps 744 mmHg 26%
16:00 +32°C° 0 mm 5 mps 744 mmHg 26%
17:00 +29°C° 0 mm 5 mps 744 mmHg 31%
18:00 +28°C° 0 mm 4 mps 744 mmHg 35%
19:00 +27°C° 0 mm 4 mps 743 mmHg 40%
20:00 +25°C° 0 mm 3 mps 743 mmHg 46%
21:00 +22°C° 0 mm 3 mps 743 mmHg 52%
22:00 +20°C° 0 mm 2 mps 743 mmHg 58%
23:00 +19°C° 0 mm 2 mps 743 mmHg 60%

17 Mayo, Lunes

Tiempo Temperatura Precipitaciones Viento Presión Humedad
00:00 +19°C° 0 mm 2 mps 743 mmHg 63%
01:00 +18°C° 0 mm 2 mps 743 mmHg 65%
02:00 +18°C° 0 mm 2 mps 743 mmHg 65%
03:00 +17°C° 0 mm 2 mps 743 mmHg 66%
04:00 +17°C° 0 mm 2 mps 742 mmHg 67%
05:00 +18°C° 0 mm 3 mps 742 mmHg 63%
06:00 +20°C° 0 mm 3 mps 742 mmHg 58%
07:00 +22°C° 0 mm 3 mps 742 mmHg 53%
08:00 +23°C° 0 mm 4 mps 742 mmHg 49%
09:00 +26°C° 0 mm 5 mps 742 mmHg 44%
10:00 +27°C° 0 mm 5 mps 742 mmHg 39%
11:00 +28°C° 0 mm 6 mps 742 mmHg 36%
12:00 +28°C° 0 mm 6 mps 742 mmHg 33%
13:00 +29°C° 0 mm 7 mps 742 mmHg 30%
14:00 +29°C° 0 mm 6 mps 741 mmHg 31%
15:00 +29°C° 0 mm 6 mps 741 mmHg 33%
16:00 +29°C° 0 mm 6 mps 741 mmHg 34%
17:00 +28°C° 0 mm 5 mps 741 mmHg 36%
18:00 +26°C° 0 mm 5 mps 741 mmHg 38%
19:00 +25°C° 0 mm 4 mps 742 mmHg 40%
20:00 +22°C° 0 mm 4 mps 742 mmHg 47%
21:00 +21°C° 0 mm 3 mps 742 mmHg 53%
22:00 +19°C° 0 mm 2 mps 743 mmHg 60%
23:00 +18°C° 0 mm 2 mps 743 mmHg 65%

18 Mayo, Martes

Tiempo Temperatura Precipitaciones Viento Presión Humedad
00:00 +16°C° 0 mm 2 mps 743 mmHg 70%
01:00 +15°C° 0 mm 1 mps 744 mmHg 75%
02:00 +14°C° 0 mm 1 mps 744 mmHg 75%
03:00 +14°C° 0 mm 2 mps 744 mmHg 76%
04:00 +13°C° 0 mm 2 mps 745 mmHg 76%
05:00 +14°C° 0 mm 2 mps 745 mmHg 69%
06:00 +15°C° 0 mm 2 mps 745 mmHg 62%
07:00 +16°C° 0 mm 2 mps 746 mmHg 54%
08:00 +17°C° 0 mm 2 mps 746 mmHg 49%
09:00 +19°C° 0 mm 2 mps 746 mmHg 44%
10:00 +20°C° 0 mm 3 mps 746 mmHg 39%
11:00 +21°C° 0 mm 3 mps 746 mmHg 36%
12:00 +22°C° 0 mm 3 mps 746 mmHg 33%
13:00 +24°C° 0 mm 3 mps 746 mmHg 30%
14:00 +25°C° 0 mm 3 mps 746 mmHg 30%
15:00 +25°C° 0 mm 2 mps 746 mmHg 29%
16:00 +25°C° 0 mm 2 mps 747 mmHg 29%
17:00 +24°C° 0 mm 2 mps 747 mmHg 34%
18:00 +23°C° 0 mm 2 mps 747 mmHg 40%
19:00 +22°C° 0 mm 1 mps 747 mmHg 45%
20:00 +20°C° 0 mm 1 mps 747 mmHg 51%
21:00 +18°C° 0 mm 1 mps 748 mmHg 57%
22:00 +15°C° 0 mm 1 mps 748 mmHg 63%
23:00 +14°C° 0 mm 1 mps 748 mmHg 65%
Mostrar más

Necesitamos Su Consentimiento

Meteoprog y nuestros Proveedores de Servicios pueden almacenar y acceder a sus datos personales como cookies, identificadores de dispositivo u otras tecnologías similares de su dispositivo y procesar dichos datos para personalizar contenido y anuncios, además de ofrecer funciones de redes sociales y analizar el tráfico.

  • Almacenar y/o acceder a información en su dispositivo

    Se puede almacenar o acceder a cookies, identificadores de dispositivo u otra información de su dispositivo para los fines anteriormente indicados.

  • Anuncios y contenido personalizados, medición de anuncios y contenido, percepciones del público, y desarrollo de productos

    Los anuncios y el contenido pueden personalizarse en base a su perfil. Se pueden añadir más datos para personalizar mejor los anuncios y contenidos. Se puede medir el rendimiento de los anuncios y contenidos. Se puede obtener la percepción sobre el público que ha visto los anuncios y contenidos. Dichos datos pueden usarse para desarrollar o mejorar la experiencia del usuario, sistemas y software.

Al hacer clic en ‘Estoy De Acuerdo’ usted permitirá el uso de las cookies, identificadores de dispositivo, balizas web u otras tecnologías similares indicadas. Su configuración puede cambiarse desde el navegador de su dispositivo.

Para ciertos fines, los intereses legítimos pueden ser considerados por encima del consentimiento. Puede leer más sobre ello en nuestra Política de Privacidad y Cookies.